Joplin, MO

3:33 PM CDT on October 16, 2019 (GMT -0500)
Joplin Regional

Weather History for KJLN - June, 2019

Change the Weather History Date:

Tuesday, June 4, 2019

  Actual Average Record
Temperature  
Mean Temperature 73 °F 72 °F  
Max Temperature 82 °F 83 °F 92 °F (1953)
Min Temperature 64 °F 62 °F 47 °F (2003)
Degree Days  
Heating Degree Days 0 0  
Month to date heating degree days 0 2  
Since 1 June heating degree days 0 2  
Since 1 July heating degree days 4415 4071  
Cooling Degree Days 8 8  
Month to date cooling degree days 35 29  
Year to date cooling degree days 188 209  
Since 1 June cooling degree days 35 29  
Growing Degree Days 23 (Base 50)    
Moisture  
Dew Point 68 °F    
Average Humidity 83    
Maximum Humidity 100    
Minimum Humidity 72    
Precipitation  
Precipitation 0.00 in 0.21 in 1.94 in (1985)
Month to date precipitation 0.34 0.82  
Year to date precipitation 28.49 18.77  
Sea Level Pressure  
Sea Level Pressure 29.89 in    
Wind  
Wind Speed 8 mph ()    
Max Wind Speed 22 mph    
Max Gust Speed 29 mph    
Visibility 9.9 miles    
Events      
T = Trace of Precipitation, MM = Missing Value Source: Averaged Metar Reports

Daily Weather History Graph

Daily Weather History Graph

Search for Another Location

Airport or City:

Astronomy

Jun. 04, 2019 Rise Set
Actual Time 5:58 AM CDT 8:34 PM CDT
Civil Twilight 5:28 AM CDT 9:04 PM CDT
Nautical Twilight 4:50 AM CDT 9:42 PM CDT
Astronomical Twilight 4:08 AM CDT 10:25 PM CDT
Moon 7:07 AM CDT (6/4) 10:03 PM CDT (6/4)
Length of Visible Light 15h 36m
Length of Day
14h 35m
New Moon, 2% of the Moon is Illuminated
Jun 4
New Moon
Jun 10
First Quarter
Jun 17
Full
Jun 25
Last Quarter
Jul 2
New

Hourly Weather History & Observations

Time (CDT) Temp. Heat Index Dew Point Humidity Pressure Visibility Wind Dir Wind Speed Gust Speed Precip Events Conditions
12:53 AM 66.0 °F - 64.9 °F 96% 29.94 in 9.0 mi SSE 6.9 mph - N/A   Clear
1:53 AM 66.0 °F - 64.9 °F 96% 29.94 in 9.0 mi ESE 4.6 mph - N/A   Clear
2:53 AM 66.0 °F - 64.0 °F 93% 29.94 in 10.0 mi SE 5.8 mph - N/A   Overcast
3:53 AM 64.9 °F - 64.0 °F 97% 29.94 in 10.0 mi SSE 6.9 mph - N/A   Partly Cloudy
4:53 AM 66.0 °F - 64.0 °F 93% 29.95 in 10.0 mi SE 3.5 mph - N/A   Clear
5:53 AM 64.9 °F - 63.0 °F 93% 29.94 in 10.0 mi SSE 6.9 mph - N/A   Partly Cloudy
6:53 AM 66.9 °F - 64.0 °F 90% 29.94 in 10.0 mi South 6.9 mph - N/A   Clear
7:53 AM 70.0 °F - 66.0 °F 87% 29.94 in 10.0 mi South 13.8 mph - N/A   Clear
8:53 AM 73.0 °F - 68.0 °F 84% 29.93 in 10.0 mi South 15.0 mph 21.9 mph N/A   Clear
9:53 AM 75.9 °F - 69.1 °F 79% 29.91 in 10.0 mi South 17.3 mph - N/A   Clear
10:53 AM 79.0 °F - 71.1 °F 77% 29.88 in 10.0 mi SSW 13.8 mph - N/A   Clear
11:53 AM 79.0 °F - 71.1 °F 77% 29.88 in 10.0 mi South 13.8 mph 20.7 mph N/A   Clear
12:53 PM 78.1 °F - 70.0 °F 76% 29.91 in 10.0 mi SSW 11.5 mph - N/A   Clear
1:53 PM 81.0 °F 85.2 °F 72.0 °F 74% 29.90 in 10.0 mi SW 11.5 mph - N/A   Mostly Cloudy
2:53 PM 79.0 °F - 71.1 °F 77% 29.90 in 10.0 mi SW 11.5 mph - N/A   Scattered Clouds
3:53 PM 81.0 °F 85.2 °F 72.0 °F 74% 29.88 in 10.0 mi SSW 9.2 mph - N/A   Clear
4:53 PM 81.0 °F 84.9 °F 71.1 °F 72% 29.85 in 10.0 mi SW 20.7 mph 28.8 mph N/A   Scattered Clouds
5:53 PM 81.0 °F 85.2 °F 72.0 °F 74% 29.83 in 10.0 mi SW 13.8 mph 24.2 mph N/A   Scattered Clouds
6:53 PM 80.1 °F 83.6 °F 71.1 °F 74% 29.81 in 10.0 mi SSW 11.5 mph - N/A   Clear
7:53 PM 78.1 °F - 71.1 °F 79% 29.81 in 10.0 mi SSW 9.2 mph - N/A   Clear
8:53 PM 75.9 °F - 70.0 °F 82% 29.82 in 10.0 mi South 12.7 mph - N/A   Clear
9:53 PM 73.9 °F - 69.1 °F 85% 29.84 in 10.0 mi SSW 11.5 mph - N/A   Clear
10:53 PM 73.0 °F - 68.0 °F 84% 29.84 in 10.0 mi SSW 11.5 mph - N/A   Clear
11:53 PM 72.0 °F - 66.0 °F 81% 29.85 in 10.0 mi SSW 6.9 mph - N/A   Clear